Погода в Ньяле

Судан     12°02′45″N   24°53′03″E
темп.,
°C
ветер,
м/с
пор.,
м/с
влажн.,
%
обл.,
%
осадки,
мм/ч
давл.,
гПа
погр.,
м
8 мая, сб
сб823:00+28ю364693 0.0 1011298
02:00+27юз235299 0.2 101171
05:00+27юз475399 0.0 1011406
08:00+28зюз675143 0.0 1013699
11:00+33зюз43356 0.0 10111504
14:00+37вюв342134 0.0 10074242
17:00+34юв663098 0.0 1006675
20:00+30з23395 0.0 100975
9 мая, вс
вс923:00+30ю474141 0.0 1010277
02:00+28зюз584299 0.0 1008252
05:00+26зюз410555 0.0 1010366
08:00+29зюз57475 0.0 1011577
11:00+35зюз53306 0.0 10101730
14:00+38юв1320100 0.0 10064235
17:00+33юв883111 0.0 1005272
20:00+30зсз35378 0.0 1008135
10 мая, пн
пн1023:00+30ссз33377 0.0 100964
02:00+29ююв61039100 0.1 1009459
05:00+26ююз51056100 0.0 1011616
08:00+27юз5754100 0.0 1013736
11:00+32зюз6637100 0.0 10111264
14:00+36юз1226100 0.0 10082658
17:00+37вюв3420100 0.0 10062512
20:00+34юв6927100 0.0 1007413
11 мая, вт
вт1123:00+29зюз3439100 0.0 1010118
02:00+28ююз4847100 0.1 1010426
05:00+25зюз475983 0.0 1011280
08:00+28зюз454883 0.0 1012420
11:00+34ююз433182 0.0 10111461
14:00+38юв361798 0.0 10084164
17:00+38вюв561397 0.0 10064217
20:00+33юв482699 0.0 1007174
12 мая, ср
ср1223:00+29ююв10154737 0.0 1011607
02:00+26ю610585 0.0 1011549
05:00+25зюз356386 0.0 1012226
08:00+28юз3549100 0.0 1012507
11:00+34ююз4431100 0.0 10111330
14:00+37ююз2422100 0.0 10083150
17:00+37вюв651865 0.0 10052321
20:00+31зюз35312 0.0 100794